Location: Prague
(50.0830°N, 14.4670°E)
Time: 02:59:30
(UTC+01:00)

XW-2F - Pass Details

Date: 05 December 2021
Orbit: 495 x 515 km, 97.5° (Epoch: 16 January)

Event Time Altitude Azimuth Distance (km) Brightness Sun altitude
Rises 18:29:42 0° 210° (SSW) 2,605 ? -22.8°
Reaches altitude 10° 18:32:35 10° 235° (SW) 1,732 ? -23.3°
Maximum altitude 18:34:42 15° 270° (W) 1,472 ? -23.6°
Drops below altitude 10° 18:36:51 10° 305° (NW) 1,747 ? -23.9°
Sets 18:39:47 0° 331° (NNW) 2,645 ? -24.4°
